Location: Richterswil
(47.2055°N, 8.7071°E)
Time: 04:28:05
(UTC+00:00)

Cosmos 1076 Rocket - Pass Details

Date: 07 June 2020
Orbit: 588 x 614 km, 82.5° (Epoch: 10 July)

Event Time Altitude Azimuth Distance (km) Brightness Sun altitude
Exits shadow 01:39:50 17° 181° (S) 1,555 5.1 -13.6°
Maximum altitude 01:43:09 76° 98° (E) 638 3.6 -13.3°
Drops below altitude 10° 01:47:32 10° 12° (NNE) 1,982 7.3 -12.9°
Sets 01:49:46 0° 11° (N) 2,889 8.3 -12.7°
